User: anonymous   Login
Location: Unspecified
(0.0000°N, 0.0000°E)
Time: 16:06:13
(UTC+00:00)
Language:

MERIDIAN 1 - Orbit

View from above orbital plane
View from above orbital plane
View from above satellite
View from above satellite

Ground track
Ground track

The orbit data is extracted from the following two-line orbital elements,

1 29668U 06061A   17116.44497524 +.00000084 +00000-0 +00000-0 0  9991
2 29668 064.9738 100.7927 7152456 240.6702 350.3320 02.00629842075749
Epoch (UTC): 26 April 2017 10:40:45
Eccentricity: 0.7152456
inclination: 64.9738°
perigee height: 1183 km
apogee height: 39169 km
right ascension of ascending node: 100.7927°
argument of perigee: 240.6702°
revolutions per day: 2.00629842
mean anomaly at epoch: 350.3320°
orbit number at epoch: 7574

The dashed part of the orbit path shows where the satellite is in the earth's shadow,  

DLR